Location: ??????????
(44.2167°N, 135.5333°E)
Time: 13:58:20
(UTC+00:00)

Cosmos 1844 - Pass Details

Date: 15 June 2025
Orbit: 822 x 866 km, 70.9° (Epoch: 15 July)

Event Time Altitude Azimuth Distance (km) Brightness Sun altitude
Exits shadow 14:16:15 47° 183° (S) 1,079 3.8 -21.8°
Maximum altitude 14:17:50 74° 113° (ESE) 859 3.6 -21.8°
Drops below altitude 10° 14:23:23 10° 29° (NNE) 2,429 6.8 -22.0°
Sets 14:25:49 0° 28° (NNE) 3,367 7.7 -22.0°
